{"data":{"norad_id":58134,"epoch":"2026-05-25T04:17:06.777024Z","epoch_age_seconds":59547,"freshness":"FRESH","line1":"1 58134U 23162S   26145.17855066 -.00000384  00000+0 -44327-5 0  9992","line2":"2 58134  43.0018  60.6277 0001044 258.2000 101.8735 15.27586799144006","mean_motion":15.27586799,"eccentricity":0.0001044,"inclination_deg":43.0018,"raan_deg":60.6277,"arg_perigee_deg":258.2,"mean_anomaly_deg":101.8735,"bstar":-4.4327e-6,"rev_number":14400,"period_min":94.266329150177,"perigee_km":482.31243176025,"apogee_km":483.74504316623,"semimajor_km":6861.1657374632,"source":"CELESTRAK","updated_at":"2026-05-25T13:38:18.534261Z"}}